BREEZE-M R/B, 37870

Orbit data source: Space-Track

BREEZE-M R/B, 37870 is space debris in MEO originally from a launch on Fri, 04 Nov 2011 UTC launched from the Tyuratam Missile And Space Complex (TTMTR). Debris objects in space refer to the collection of defunct objects orbiting the Earth. Examples of debris include non-operational satellites, rocket bodies, and fragments generated from explosions, collisions, or faulty payload assembly.

Loading next visibility...
Identifier
37870, 2011-064D
Orbit
MEO
Last TLE update
7 hours ago
Origin
Manufacturer
Khrunichev
Mission
Spacecraft
Bus & Motor
BRIZ, Unknown motor
Mass
~1,600 kg wet, 1,600 kg dry
Launch date (UTC)
2011-11-04 (14 years ago)
Launch vehicle
Unknown
Launch site
Tyuratam Missile And Space Complex (TTMTR)
Object type
Payload
Rocket body
Debris
Shape & HBR
Cyl, 4 m
Radar Cross Section
14.451 m², Large (>1 m²)

Expand to show TLE details & history

TLE from 7 hours ago
0 BREEZE-M R/B
1 37870U 11064D   25130.48436153 -.00000053  00000-0  00000-0 0  9991
2 37870  65.4692  63.5640 0261502 297.5835 172.4239  2.25567077111280
Epoch: 2025-05-10T11:37Z
Definitive object data (Epoch: 2025-05-10T11:37:28.836Z)
Latitude
58.53057°
Longitude
152.59962°
Altitude
18,826.926 km
Speed
3.926 km/s
True Right ascension
13h 01m 58s
True Declination
58° 29' 14"
Sunlit
Object was in daylight at TLE epoch
Visualization TLE readout
Latitude
-5.04155°
Longitude
18.34922°
Altitude
17,820.214 km
Speed
4.088 km/s
Apparent Right ascension
04h 20m 48s
Apparent Declination
-17° 40' 19"
Sunlit
Object is in daylight
Visualization observer readout
Local Sidereal Time
03:01:22
Azimuth
158.163° S
Elevation
29.507°
Doppler factor
1
Orbital elements
Apogee altitude
18,823.083 km
Perigee altitude
17,538.638 km
Semi-major axis
24,558.998 km
Eccentricity
0.0261502
Inclination
65.4692°
RAAN
63.564°
Arg. of periapsis
297.5835°
True anomaly
172.80656°
Mean anomaly
172.4239°
Eccentric anomaly
172.61645°
Mean motion
0.56393 °/min
BSTAR
Unknown
Orbital period
638.37 mins
Loading maneuver chart data...
Loading SW <> Apogee altitude chart data...
Loading historical data...
Loading historical data...
Loading historical data...
Loading historical data...
Loading historical data...
Loading historical data...
Loading historical data...

BREEZE-M R/B Visibility forecast

Observer location: undefined°, undefined°

Span
Click to sort rows by Start time (UTC) header in descending order
Start Az.
Max El. time (UTC)
Max El. Az.
Max El.
End time (UTC)
End Az.
221 mins2025-05-10 18:46:33.874Z158.176° S2025-05-10 20:12:33.874Z89.148° E43.436°2025-05-10 22:27:33.874Z38.621° NE
204 mins2025-05-11 07:55:33.874Z333.169° NNW2025-05-11 09:36:33.874Z289.037° WNW34.172°2025-05-11 11:19:33.874Z233.019° WSW
153 mins2025-05-11 16:13:33.874Z113.345° SE2025-05-11 17:40:33.874Z64.368° ENE29.228°2025-05-11 18:46:33.874Z29.829° NE
|